Simultaneous Nadir Overpasses (SNOs) Predictions

Prediction of SNOs between GOES-16 and LANDSAT-8 Satellite Orbit:

Table of predicted SNOs for the next 14.0 days since TLE Epoch: 12/14/2019
Index Date Time (GOES-16) GOES-16 Lat,Lon LANDSAT-8 Lat,Lon Distance(km) Time Diff (sec)
1 12/15/2019 03:06:29 -0.02, -75.19 0.42, -73.18 228.55 80
2 12/15/2019 15:25:04 0.02, -75.20 0.70, -78.33 355.80 80
3 12/17/2019 15:12:52 0.04, -75.21 0.09, -75.37 18.67 80
4 12/19/2019 15:03:21 0.04, -75.22 -0.57, -72.42 319.41 80
5 12/20/2019 03:24:45 -0.04, -75.21 -0.54, -77.61 272.22 80
6 12/22/2019 03:09:53 -0.04, -75.23 0.07, -74.65 66.30 80
7 12/24/2019 02:57:42 -0.04, -75.26 0.74, -71.70 405.19 80
8 12/24/2019 15:18:57 0.04, -75.28 0.38, -76.85 178.79 80
9 12/26/2019 15:09:25 0.04, -75.31 -0.23, -73.89 160.84 80
10 12/27/2019 03:30:49 -0.04, -75.30 -0.81, -79.09 430.15 80




NCC Satellite Simultaneous Nadir Overpasses (SNOs) Prediction Service
